Hourly Data Report for September 27, 2018

SHEARWATER RCS
NOVA SCOTIA
Current Station Operator: ECCC - MSC

44°37'47.000" N
63°30'48.000" W
24.00 m
8205092
71264
AAW

Download Data

Hourly Data (September 2018)
Hourly Data Report for September 27, 2018
TIME Temp Definition
°C
Dew Point Definition
°C
Rel Hum Definition
%
Wind Dir Definition
10's deg

Wind Spd Definition
km/h
Visibility Definition
km
Stn Press Definition
kPa
Hmdx Definition


Wind Chill Definition


Weather Definition


00:00 20.6 19.0 91 20 34   101.20 27   LegendNANA
01:00 20.7 19.1 91 21 34   101.20 28   LegendNANA
02:00 20.8 19.3 92 22 30   101.13 28   LegendNANA
03:00 20.8 19.5 92 21 31   101.11 28   LegendNANA
04:00 20.5 19.3 93 21 30   101.07 28   LegendNANA
05:00 20.0 19.0 94 22 28   101.11 27   LegendNANA
06:00 20.1 19.0 94 23 29   101.16 27   LegendNANA
07:00 19.1 18.0 94 30 15   101.29     LegendNANA
08:00 18.6 17.5 93 34 5   101.33     LegendNANA
09:00 18.8 17.6 93 33 9   101.42     LegendNANA
10:00 13.6 11.9 90 33 19   101.60     LegendNANA
11:00 13.8 12.8 94 34 12   101.58     LegendNANA
12:00 14.3 12.8 91 35 13   101.59     LegendNANA
13:00 15.4 13.6 89 36 11   101.63     LegendNANA
14:00 15.2 12.5 84 2 15   101.67     LegendNANA
15:00 15.4 12.5 83 2 13   101.72     LegendNANA
16:00 15.6 12.5 82 3 9   101.80     LegendNANA
17:00 15.5 12.3 81 2 12   101.83     LegendNANA
18:00 14.9 11.1 78 5 13   101.82     LegendNANA
19:00 14.4 11.1 81 4 9   101.85     LegendNANA
20:00 14.0 10.9 82 2 10   101.92     LegendNANA
21:00 13.3 10.5 83 2 13   101.94     LegendNANA
22:00 12.9 10.4 85 3 12   101.94     LegendNANA
23:00 12.7 10.7 88 4 12   101.92     LegendNANA

Notes on Data Quality.

Legend

  • E = Estimated
  • M = Missing
  • NA = Not Available*
  • [empty] = Indicates an unobserved value
Date modified: